Weather History for KTVL - February, 2014

Change the Weather History Date:

Wednesday, February 19, 2014

  Actual Average Record
Temperature  
Mean Temperature 39 °F 31 °F  
Max Temperature 50 °F 45 °F 62 °F (1977)
Min Temperature 28 °F 18 °F -8 °F (1990)
Degree Days  
Heating Degree Days 26 34  
Month to date heating degree days 544 658  
Since 1 July heating degree days 4385 4940  
Cooling Degree Days 0 0  
Month to date cooling degree days 0 0  
Year to date cooling degree days 0 0  
Moisture  
Dew Point 21 °F    
Average Humidity 48    
Maximum Humidity 78    
Minimum Humidity 18    
Precipitation  
Precipitation T in - 3.34 in (1986)
Month to date precipitation 4.52  
Year to date precipitation 6.79  
Sea Level Pressure  
Sea Level Pressure 30.03 in    
Wind  
Wind Speed 10 mph (South)    
Max Wind Speed 26 mph    
Max Gust Speed 39 mph    
Visibility 9 miles    
Events Snow    
T = Trace of Precipitation, MM = Missing Value Source: NWS Daily Summary

Daily Weather History Graph

Daily Weather History Graph

Search for Another Location

Airport or City:

Trip Planner

Search our weather history database for the weather conditions in past years. The results will help you decide how hot, cold, wet, or windy it might be!

Date:

Astronomy

Feb. 19, 2014 Rise Set
Actual Time 6:46 AM PST 5:42 PM PST
Civil Twilight 6:18 AM PST 6:09 PM PST
Nautical Twilight 5:47 AM PST 6:40 PM PST
Astronomical Twilight 5:17 AM PST 7:11 PM PST
Moon 10:37 PM PST (2/19) 8:57 AM PST (2/19)
Length of Visible Light 11h 50m
Length of Day
10h 56m
Waning Gibbous, 79% of the Moon is Illuminated
Feb 19
Waning Gibbous
Feb 22
Last Quarter
Mar 1
New
Mar 8
First Quarter
Mar 16
Full

Hourly Weather History & Observations

Time (PST) Temp. Windchill Dew Point Humidity Pressure Visibility Wind Dir Wind Speed Gust Speed Precip Events Conditions
12:53 AM 44.1 °F 39.0 °F 3.0 °F 18% 29.96 in 10.0 mi SSW 9.2 mph 34.5 mph N/A   Clear
1:53 AM 41.0 °F 32.5 °F 3.9 °F 21% 29.93 in 10.0 mi SSW 17.3 mph 25.3 mph N/A   Clear
2:53 AM 39.9 °F 31.8 °F 6.1 °F 25% 29.94 in 10.0 mi SSW 15.0 mph 24.2 mph N/A   Clear
3:53 AM 37.0 °F 29.3 °F 15.1 °F 41% 29.94 in 10.0 mi SSW 11.5 mph 24.2 mph N/A   Partly Cloudy
4:53 AM 36.0 °F 25.3 °F 21.9 °F 57% 29.90 in 10.0 mi South 19.6 mph 27.6 mph N/A   Clear
5:53 AM 39.0 °F 30.6 °F 25.0 °F 57% 29.93 in 10.0 mi SSW 15.0 mph 25.3 mph N/A   Mostly Cloudy
6:02 AM 37.9 °F 30.0 °F 25.0 °F 60% 30.00 in 9.0 mi SSW 12.7 mph 26.5 mph N/A   Overcast
6:53 AM 37.0 °F 29.3 °F 27.0 °F 67% 29.96 in 5.0 mi SSW 11.5 mph 28.8 mph 0.00 in Snow Light Snow
7:01 AM 37.0 °F 28.5 °F 28.0 °F 70% 30.01 in 4.0 mi South 13.8 mph 23.0 mph 0.00 in Snow Light Snow
7:11 AM 37.0 °F 28.5 °F 28.0 °F 70% 30.03 in 9.0 mi SSE 13.8 mph 19.6 mph 0.00 in   Mostly Cloudy
7:49 AM 35.6 °F 29.2 °F 28.4 °F 75% 30.07 in 8.0 mi SE 8.1 mph - 0.00 in Snow Light Snow
7:53 AM 37.0 °F 31.6 °F 28.9 °F 73% 30.03 in 9.0 mi SE 6.9 mph - 0.00 in   Overcast
8:21 AM 37.0 °F 26.4 °F 28.9 °F 73% 30.09 in 9.0 mi South 20.7 mph - 0.00 in   Scattered Clouds
8:53 AM 37.9 °F 28.9 °F 28.0 °F 68% 30.04 in 10.0 mi South 16.1 mph - 0.00 in   Clear
9:53 AM 43.0 °F 39.5 °F 24.1 °F 47% 30.04 in 10.0 mi Variable 5.8 mph - N/A   Clear
10:53 AM 45.0 °F 39.7 °F 21.0 °F 39% 30.04 in 10.0 mi NE 10.4 mph - N/A   Clear
11:53 AM 46.0 °F 44.8 °F 17.1 °F 31% 30.01 in 10.0 mi Variable 3.5 mph - N/A   Clear
12:53 PM 48.0 °F - 18.0 °F 30% 30.01 in 10.0 mi Variable 4.6 mph - N/A   Clear
1:53 PM 48.9 °F - 17.1 °F 28% 30.00 in 10.0 mi Calm Calm - N/A   Clear
2:53 PM 48.9 °F - 17.1 °F 28% 29.99 in 10.0 mi North 5.8 mph - N/A   Clear
3:53 PM 48.9 °F - 19.0 °F 31% 30.01 in 10.0 mi Calm Calm - N/A   Clear
4:53 PM 45.0 °F 43.5 °F 19.9 °F 37% 30.03 in 10.0 mi Variable 3.5 mph - N/A   Clear
5:53 PM 37.9 °F - 23.0 °F 55% 30.05 in 10.0 mi Calm Calm - N/A   Clear
6:53 PM 34.0 °F - 23.0 °F 64% 30.10 in 10.0 mi Calm Calm - N/A   Clear
7:53 PM 33.1 °F - 24.1 °F 70% 30.12 in 10.0 mi Calm Calm - N/A   Partly Cloudy
8:53 PM 30.9 °F - 23.0 °F 72% 30.15 in 10.0 mi Calm Calm - N/A   Partly Cloudy
9:53 PM 30.0 °F - 23.0 °F 75% 30.14 in 10.0 mi Calm Calm - N/A   Clear
10:53 PM 28.9 °F 25.2 °F 23.0 °F 78% 30.17 in 10.0 mi South 3.5 mph - N/A   Clear
11:53 PM 28.0 °F - 21.9 °F 78% 30.17 in 10.0 mi Calm Calm - N/A   Clear